Regional Weather Roundup
Issued by NWS Portland, ME

Current Version | Previous Version | Graphics & Text | Print | Product List | Glossary On
Versions: 1 2 3 4 5 6 7 8 9 10 11 12 13 14 15 16 17 18 19 20 21 22 23 24 25 26 27 28 29 30 31 32 33 34 35 36 37 38 39 40 41 42 43 44 45 46 47 48 49 50
000
ASUS41 KGYX 021410
RWRGYX
WEATHER ROUNDUP FOR MAINE AND NEW HAMPSHIRE
NATIONAL WEATHER SERVICE GRAY ME
1000 AM EDT WED SEP 02 2015

MEZ002-005-006-010-012-015-018-020-021-024-026-027-029-021500-
MAINE

CITY           SKY/WX    TMP DP  RH WIND       PRES   REMARKS
PORTLAND       SUNNY     72  63  73 CALM      29.97F
SANFORD        SUNNY     75  63  64 CALM      29.98F
BAR HARBOR     SUNNY     66  66 100 S7        29.95F
WISCASSET      SUNNY     73  65  75 CALM      29.97F
ROCKLAND       SUNNY     68  63  83 W5        29.94F
FRYEBURG       SUNNY     72  65  78 CALM      29.98F
LEWISTONAUBURN SUNNY     70 N/A N/A CALM      29.98S
AUGUSTA        SUNNY     74  63  68 CALM      29.97F
WATERVILLE     SUNNY     72  63  73 CALM      29.94S
BANGOR         SUNNY     71  62  73 CALM      29.95F
GREENVILLE       N/A     72  64  76 VRB6      29.96F
MILLINOCKET    SUNNY     75  65  70 VRB7      29.93F
HOULTON        SUNNY     70  63  78 W7        29.90F
PRESQUE ISLE   MOSUNNY   72  61  68 W5        29.89S
FRENCHVILLE    SUNNY     71  62  73 W6        29.89F
CARIBOU        SUNNY     71  62  73 VRB5      29.89R
$$

NHZ002-005-008-009-011-012-014-021500-
NEW HAMPSHIRE

CITY           SKY/WX    TMP DP  RH WIND       PRES   REMARKS
PORTSMOUTH     MOSUNNY   75  64  66 W6        29.96F
ROCHESTER      SUNNY     75  64  68 CALM      29.97F
NASHUA         SUNNY     77  65  66 VRB3      29.98F
MANCHESTER     SUNNY     75  61  61 CALM      29.97F
CONCORD        SUNNY     75  61  61 CALM      29.99F
LACONIA        SUNNY     73  63  68 SW7       29.98S
PLYMOUTH       FAIR      67  65  96 CALM      29.99F
BERLIN         SUNNY     70  59  68 CALM      30.02F
WHITEFIELD     SUNNY     69  60  73 CALM      30.02F
JAFFREY        SUNNY     72  64  76 S6        30.02F
KEENE          SUNNY     66  59  77 CALM      30.02F
LEBANON        PTSUNNY   64  60  87 CALM      30.01F
MT WASHINGTON  MOSUNNY   64  36  34 W20         N/A
$$

VTZ005-007-008-021500-
VERMONT

CITY           SKY/WX    TMP DP  RH WIND       PRES   REMARKS
ST JOHNSBURY     N/A     62  57  83 MISG      30.01F
MONTPELIER     SUNNY     64  60  87 CALM      30.07R
BURLINGTON     MOSUNNY   74  63  68 S9        30.00S
$$

MAZ007-012-024-CTZ003-RIZ002-NYZ038-NYZ072-021500-
SOUTHERN NEW ENGLAND AND NY

CITY           SKY/WX    TMP DP  RH WIND       PRES   REMARKS
BOSTON         SUNNY     80  63  55 SW6       29.98F
WORCESTER      SUNNY     74  63  68 W7        30.03S
NANTUCKET      SUNNY     74  67  78 SW9       30.03S
PROVIDENCE     SUNNY     78  67  68 SW6       30.01F
HARTFORD       SUNNY     75  64  68 S5        30.00F
ALBANY         SUNNY     73  64  73 VRB3      30.02F
NEW YORK CITY  PTSUNNY   82  62  50 SW10      30.02S
$$

ANZ081-ANZ082-ANZ150-NHZ014-MEZ023>029-021500-
COASTAL MARINE OBSERVATIONS

STATION/POSITION TIME  TEMP    WIND        PRES    WAVE
                       AIR SEA DIR/SP/G            HT/PER
                 (UTC) (F)     (DEG/KT/KT) (MB)    (FT/S)
MOUNT DESERT ROC 1400   61     210/ 16/ 16 1014.7F
MATINICUS ROCK   1400          240/ 12/ 12 1014.2F
ISLE OF SHOALS   1400   67     220/  7/  7 1014.5F
JEFFREYS LEDGE   1303      67                N/A     2/14
CASHES LEDGE BUO 1350   68                 1015.0F   2/ 8
GEORGES BANK BUO 1350   67 69  340/  2/  4 1016.8S   3/ 7
$$

.............KEY..............
   WCI - WIND CHILL
   TC  - TEMPERATURE IN CELSIUS
   VSB - VISIBILITY IN MILES
   HX  - HEAT INDEX
   FAIR- INDICATES FEW OR NO CLOUDS BELOW 12,000 FT, WITH NO
         SIGNIFICANT WEATHER AND/OR OBSTRUCTIONS TO VISIBILITY.




USA.gov is the U.S. government's official web portal to all federal, state and local government web resources and services.